Location: *
(53.9002°N, 27.5624°E)
Time: 07:44:38
(UTC+00:00)

Cosmos 1939 Rocket - Pass Details

Date: 12 November 2019
Orbit: 531 x 586 km, 97.4° (Epoch: 15 December)

Event Time Altitude Azimuth Distance (km) Brightness Sun altitude
Exits shadow 17:19:30 41° 222° (SW) 862 3.9 -26.8°
Maximum altitude 17:20:24 48° 261° (W) 771 3.8 -26.9°
Drops below altitude 10° 17:24:27 10° 337° (NNW) 1,920 5.9 -27.5°
Sets 17:26:41 0° 343° (NNW) 2,821 6.8 -27.9°
